Regional Weather Roundup
Issued by NWS

Home | Current Version | Previous Version | Graphics & Text | Print | Product List | Glossary On
Versions: 1 2 3 4 5 6 7 8 9 10 11 12 13 14 15 16 17 18 19 20 21 22 23 24 25 26 27 28 29 30 31 32 33 34 35 36 37 38 39 40 41 42 43 44 45 46 47 48 49 50
000
ASUS45 KABQ 030010
RWRNM
NEW MEXICO REGIONAL WEATHER ROUNDUP
NATIONAL WEATHER SERVICE ALBUQUERQUE NM
600 PM MDT WED SEP 02 2015

NOTE: "FAIR" MEANS FEW OR NO CLOUDS BELOW 12,000 FEET AGL WITH NO
       SIGNIFICANT WEATHER OR OBSTRUCTIONS TO VISION.

      THIS PRODUCT IS RELEASED AS TWO VERSIONS.  ONE VERSION NEAR
      THE TOP OF THE HOUR CONTAINING PRELIMINARY DATA FROM ALBUQUERQUE
      AND OTHER STATIONS.  A FINAL VERSION WITH ADDITIONAL DATA IS
      ISSUED ABOUT 10 MINUTES AFTER THE HOUR.

NMZ501-503-504-510>518-030100-
NORTHWEST PLATEAU/NORTHCENTRAL MOUNTAINS

CITY           SKY/WX    TMP DP  RH WIND       PRES   REMARKS
FARMINGTON     SUNNY     77  50  38 CALM      30.09F
6HR MIN TEMP:  76; 6HR MAX TEMP:  86;

LOS ALAMOS     PTSUNNY   76  39  26 W8        30.23F
SANTA FE       PTSUNNY   81  42  25 N5        30.15S
6HR MIN TEMP:  79; 6HR MAX TEMP:  87;

TAOS           PTSUNNY   79  39  24 SW15      30.22S
ANGEL FIRE     FAIR      68  42  38 W10       30.31R

$$
NMZ402-403-502-505>509-030100-
WESTCENTRAL MOUNTAINS/SOUTHWEST MOUNTAINS

CITY           SKY/WX    TMP DP  RH WIND       PRES   REMARKS
GALLUP         CLOUDY    72  46  39 SW21G28   30.22R
6HR MIN TEMP:  71; 6HR MAX TEMP:  84;

GRANTS         CLOUDY    66  56  72 SW6       30.25S
SILVER CITY      N/A     75  57  53 W10       30.17R

$$
NMZ407-409-411-412-030100-
SOUTHERN DESERTS

CITY           SKY/WX    TMP DP  RH WIND       PRES   REMARKS
LORDSBURG      LGT RAIN  72  54  53 W30G38    30.09F
DEMING         CLOUDY    78  48  34 W14       30.06R
6HR MIN TEMP:  78; 6HR MAX TEMP:  95;

LAS CRUCES     PTSUNNY   92  37  14 S5        30.02S
HOLLOMAN AFB   MOSUNNY   94  40  15 SW5       29.95F
ALAMOGORDO     MOSUNNY   93  39  15 CALM      29.98F
T OR C         CLOUDY    83  47  28 W16       30.05R
6HR MIN TEMP:  83; 6HR MAX TEMP:  91;


$$
NMZ519>523-030100-
CENTRAL VALLEYS/CENTRAL HIGHLANDS

CITY           SKY/WX    TMP DP  RH WIND       PRES   REMARKS
ALBUQUERQUE    CLOUDY    77  46  33 W25G33    30.12R
6HR MIN TEMP:  77; 6HR MAX TEMP:  90;

DOUBLE EAGLE   PTSUNNY   70  52  52 SW33      30.18R
MORIARTY ARPT  FAIR      82  41  23 W24G35    30.16R
6HR MIN TEMP:  82; 6HR MAX TEMP:  88;

CLINES CORNERS PTSUNNY   81  41  24 NW7       30.20F
6HR MIN TEMP:  78; 6HR MAX TEMP:  82;

BELEN          FAIR      71  55  56 NW16G23   30.11S
6HR MIN TEMP:  67; 6HR MAX TEMP:  89; 6HR PCP:  0.03;

SOCORRO        FAIR      85  43  22 NW14G21   30.05S
6HR MIN TEMP:  84; 6HR MAX TEMP:  91;


$$
NMZ524>526-539-540-030100-
SOUTHCENTRAL MOUNTAINS

CITY           SKY/WX    TMP DP  RH WIND       PRES   REMARKS
RUIDOSO        PTSUNNY   77  45  31 E16       30.24R

$$
NMZ527>531-030100-
NORTHEAST HIGHLANDS/NORTHEAST PLAINS

CITY           SKY/WX    TMP DP  RH WIND       PRES   REMARKS
LAS VEGAS      PTSUNNY   75  48  38 N8        30.19R
6HR MIN TEMP:  72; 6HR MAX TEMP:  84; 6HR PCP: TRACE;

RATON          CLOUDY    73  50  44 NE12      30.12F
6HR MIN TEMP:  70; 6HR MAX TEMP:  90; 6HR PCP:  0.01;

CLAYTON        MOSUNNY   89  50  26 S10       30.01S
6HR MIN TEMP:  87; 6HR MAX TEMP:  92;


$$
NMZ532>537-030100-
EASTCENTRAL PLAINS

CITY           SKY/WX    TMP DP  RH WIND       PRES   REMARKS
TUCUMCARI      MOSUNNY   94  48  20 SW15      29.94S
6HR MIN TEMP:  91; 6HR MAX TEMP:  98;

CANNON AFB     SUNNY     92  47  21 S18       30.00S
6HR MIN TEMP:  90; 6HR MAX TEMP:  95;

CLOVIS AIRPORT MOSUNNY   90  50  25 S22G28    30.02S

$$
NMZ028-029-538-030100-
SOUTHEAST PLAINS

CITY           SKY/WX    TMP DP  RH WIND       PRES   REMARKS
ROSWELL        MOSUNNY   94  41  16 S13       29.97S
6HR MIN TEMP:  91; 6HR MAX TEMP:  99;

ARTESIA        PTSUNNY   93  46  20 SE16      29.97F
CARLSBAD       PTSUNNY   94  48  20 SE16      29.95S
6HR MIN TEMP:  89; 6HR MAX TEMP:  98;

HOBBS          SUNNY     90  50  25 SE14      30.02F


$$



USA.gov is the U.S. government's official web portal to all federal, state and local government web resources and services.